Weather in Shchukino

Russia / Pskov Oblast     56°35′01″N   29°17′42″E
temp.,
°C
wind,
m/s
gust,
m/s
humid.,
%
clouds,
%
prec.,
mm/h
press.,
hPa
HPBL,
m
21 june, mon
mon2100:00+20se22924 0.0 101833
03:00+18sse22965 0.8 101842
06:00+20sse25975 0.0 1018133
09:00+25se34708 0.0 1018570
12:00+30sse34465 0.0 10171574
15:00+31sse34375 0.0 10172078
18:00+30se3444100 0.0 10161489
21:00+23s277291 0.0 1016152
22 june, tue
tue2200:00+19ese287910 0.0 1016162
03:00+19ese388490 0.0 1017156
06:00+20se398762 0.0 1016246
09:00+25se586497 0.0 1016773
12:00+28sse585092 0.0 10161548
15:00+30s5845100 0.0 10152118
18:00+29sse475187 0.0 10152038
21:00+25sse387326 0.1 1016317
23 june, wed
wed2300:00+21sse25865 0.2 1017110
03:00+20sse28915 0.3 1017170
06:00+21sse27890 0.0 1018210
09:00+26sse35600 0.0 1018573
12:00+30s47375 0.0 10181577
15:00+32s57340 0.0 10172194
18:00+31s46443 0.0 10172159
21:00+25s23730 0.0 101765
24 june, thu
thu2400:00+22s24850 0.0 101871
03:00+21sse23950 0.0 101858
06:00+22s3889100 0.3 1018270
09:00+24ssw2483100 0.5 1018270
12:00+30ssw4752100 0.0 10171493
15:00+32wsw574197 0.0 10162726
18:00+31sw374789 0.0 10161827
21:00+18n119493 6.3 101734
25 june, fri
fri2500:00+18sse249586 1.2 101783
03:00+17sse12956 1.3 101724
06:00+18ese1193100 1.7 101632
09:00+23se127738 2.8 1016296
12:00+29sse235274 0.0 10151129
15:00+32s344150 0.0 10132404
18:00+29sw365429 0.0 1012681
21:00+23ne2486100 1.1 101284